Погода в Нижнедевицке

Россия / Воронежская область     51°32′27″N   38°21′41″E
темп.,
°C
ветер,
м/с
пор.,
м/с
влажн.,
%
обл.,
%
осадки,
мм/ч
давл.,
гПа
погр.,
м
10 апреля, сб
сб1000:00+3ссв346956 0.0 102652
03:00+2св34725 0.0 102748
06:00+1св34805 0.0 102751
09:00+6ссв35610 0.0 1027409
12:00+9ссв44420 0.0 10261382
15:00+10с45380 0.0 10251527
18:00+9с46432 0.0 1025813
21:00+6с355723 0.0 102796
11 апреля, вс
вс1100:00+4с36620 0.0 102798
03:00+3с486495 0.0 1027128
06:00+3с4964100 0.0 1028188
09:00+7ссв51051100 0.0 1029621
12:00+10ссв7840100 0.0 1028863
15:00+11св7837100 0.0 10281029
18:00+10св61146100 0.0 1027650
21:00+8св51256100 0.0 1028380
12 апреля, пн
пн1200:00+8св51061100 0.0 1027373
03:00+7св5979100 0.0 1026278
06:00+6св51097100 0.0 1026248
09:00+9всв6983100 0.0 1025329
12:00+15в6861100 0.0 1024518
15:00+19в6941100 0.0 10221026
18:00+18в4849100 0.0 1022182
21:00+14вюв41164100 0.0 1023202
13 апреля, вт
вт1300:00+12юв377179 0.0 1023118
03:00+10юв3478100 0.0 102448
06:00+9вюв3682100 0.0 1024107
09:00+14юв586282 0.0 1023432
12:00+14юв4964100 0.0 1023511
15:00+20юв683779 0.0 10221751
18:00+18юв59426 0.0 1021311
21:00+14юв41160100 0.0 1022247
14 апреля, ср
ср1400:00+14юв51359100 0.0 1022352
03:00+12вюв3970100 0.0 1021207
06:00+11вюв387599 0.0 1020183
09:00+14юв595895 0.0 1020470
12:00+18ююв711495 0.0 10181832
15:00+17ю5855100 0.0 10181038
18:00+16ю3559100 0.0 1017246
21:00+13юв256999 0.4 101790